FW6812 Weather Reports


time (UTC)temp
C
wind
direction
speed
KPH
gust
KPH
rain 1hr
cm
rain 24hr
cm
rain mn
cm
humidity
%
barometer
mb
20260906114544 22 0 0.0 0.0 0.00 0.03 0.00 97 1012.1
20260906113056 22 0 0.0 0.0 0.00 0.03 0.00 97 1011.9
20260906111552 22 0 0.0 0.0 0.00 0.03 0.00 96 1011.4
20260906110049 22 0 0.0 0.0 0.00 0.03 0.00 96 1011.3
20260906104545 22 0 0.0 3.2 0.00 0.03 0.00 96 1011.4
20260906103052 22 0 0.0 3.2 0.00 0.03 0.00 96 1011.4
20260906101556 22 0 0.0 3.2 0.00 0.03 0.00 96 1011.0
20260906100049 22 0 0.0 0.0 0.00 0.03 0.00 96 1010.6
20260906094544 22 0 0.0 1.6 0.00 0.03 0.00 96 1010.5
20260906093052 22 0 0.0 3.2 0.00 0.03 0.00 96 1010.2
20260906091549 22 0 0.0 0.0 0.00 0.03 0.00 96 1010.2
20260906090052 22 0 0.0 0.0 0.00 0.03 0.00 95 1010.4
20260906084545 23 0 0.0 3.2 0.00 0.03 0.00 96 1010.4
20260906083054 23 0 0.0 0.0 0.00 0.03 0.00 96 1010.5
20260906081553 23 0 0.0 3.2 0.00 0.03 0.00 96 1010.2
20260906080052 23 313 0.0 3.2 0.00 0.03 0.00 96 1010.3
20260906074550 23 0 0.0 0.0 0.00 0.03 0.00 96 1010.4
20260906073043 23 0 0.0 3.2 0.00 0.03 0.00 96 1010.5
20260906071553 23 0 0.0 3.2 0.00 0.03 0.00 96 1010.9
20260906070051 23 0 0.0 3.2 0.00 0.03 0.00 96 1011.2
20260906064549 22 0 0.0 0.0 0.00 0.03 0.00 95 1011.3
20260906063045 23 0 0.0 0.0 0.00 0.03 0.00 95 1011.2
20260906061603 23 0 0.0 0.0 0.00 0.03 0.00 95 1011.1
20260906060057 23 0 0.0 0.0 0.00 0.03 0.00 95 1011.1
20260906054549 23 0 0.0 0.0 0.00 0.03 0.00 94 1011.4
20260906053044 23 0 0.0 3.2 0.00 0.03 0.00 94 1011.6
20260906051603 23 0 0.0 0.0 0.00 0.03 0.00 93 1011.2
20260906050049 23 0 0.0 3.2 0.00 0.03 0.00 93 1011.2
20260906044546 24 313 0.0 1.6 0.00 0.03 0.00 94 1011.3
20260906043053 24 0 0.0 6.4 0.00 0.03 0.00 93 1011.7
20260906041544 24 168 1.6 6.4 0.00 0.03 0.00 93 1011.8
20260906040055 23 212 1.6 6.4 0.00 0.03 0.00 94 1011.9
20260906034550 23 127 1.6 8.0 0.00 0.03 0.03 94 1012.1
20260906033045 23 137 1.6 4.8 0.00 0.03 0.03 95 1012.2
20260906031554 23 89 0.0 8.0 0.00 0.03 0.03 95 1012.5
20260906030050 23 68 3.2 8.0 0.00 0.03 0.03 94 1013.0
20260906024545 24 0 0.0 3.2 0.00 0.03 0.03 96 1012.1
20260906023050 23 0 0.0 3.2 0.00 0.03 0.03 96 1011.9
20260906021551 23 350 0.0 0.0 0.00 0.03 0.03 96 1011.7
20260906020049 23 350 0.0 3.2 0.00 0.03 0.03 95 1011.6
20260906014549 23 0 0.0 1.6 0.00 0.03 0.03 96 1011.5
20260906013046 23 30 0.0 3.2 0.00 0.03 0.03 96 1011.4
20260906011554 23 0 0.0 3.2 0.00 0.03 0.03 95 1011.6
20260906010050 23 0 0.0 0.0 0.00 0.03 0.03 95 1011.4
20260906004552 23 0 0.0 3.2 0.00 0.03 0.03 95 1011.1
20260906003050 23 265 0.0 3.2 0.00 0.03 0.03 95 1011.4
20260906001549 22 161 0.0 3.2 0.03 0.03 0.03 93 1011.4
20260906000045 23 176 1.6 3.2 0.03 0.03 0.03 93 1011.2
20260905234545 23 358 1.6 8.0 0.03 0.03 0.03 86 1011.2
20260905233051 25 109 3.2 9.7 0.03 0.03 0.03 80 1013.1
20260905231548 27 4 3.2 14.5 0.00 0.00 0.00 70 1012.3
20260905230054 28 102 1.6 6.4 0.00 0.00 0.00 86 1012.1
20260905224552 28 255 1.6 11.3 0.00 0.00 0.00 86 1011.2
20260905223051 28 153 3.2 9.7 0.00 0.00 0.00 86 1010.2
20260905221547 29 83 4.8 12.9 0.00 0.00 0.00 86 1010.6
20260905220057 29 174 3.2 14.5 0.00 0.00 0.00 86 1010.0
20260905214549 29 200 4.8 14.5 0.00 0.00 0.00 85 1010.0
20260905213048 30 152 1.6 9.7 0.00 0.00 0.00 84 1010.3
20260905211543 30 271 3.2 12.9 0.00 0.00 0.00 82 1010.3
20260905210107 31 169 3.2 14.5 0.00 0.00 0.00 79 1010.2
20260905204553 31 210 3.2 9.7 0.00 0.00 0.00 79 1010.2
20260905203047 31 84 4.8 12.9 0.00 0.00 0.00 79 1010.2
20260905201552 31 193 4.8 12.9 0.00 0.00 0.00 79 1010.2
20260905200059 31 152 3.2 12.9 0.00 0.00 0.00 78 1010.2
20260905194548 31 175 4.8 14.5 0.00 0.00 0.00 77 1010.6
20260905193050 31 130 4.8 12.9 0.00 0.00 0.00 77 1010.6
20260905191551 31 91 4.8 16.1 0.00 0.00 0.00 79 1011.0
20260905190059 32 232 3.2 9.7 0.00 0.00 0.00 78 1011.4
20260905184554 32 1 3.2 8.0 0.00 0.00 0.00 77 1011.6
20260905183110 32 176 3.2 14.5 0.00 0.00 0.00 75 1011.8
20260905181552 32 181 6.4 12.9 0.00 0.00 0.00 75 1011.9
20260905180052 32 98 3.2 11.3 0.00 0.00 0.00 74 1012.0
20260905174547 32 82 3.2 11.3 0.00 0.00 0.00 74 1012.2
20260905173051 33 96 1.6 11.3 0.00 0.00 0.00 70 1012.3
20260905171553 33 263 3.2 9.7 0.00 0.00 0.00 66 1012.4
20260905170052 33 246 1.6 4.8 0.00 0.00 0.00 65 1012.8
20260905164556 33 254 1.6 4.8 0.00 0.00 0.00 66 1012.9
20260905163056 33 236 1.6 6.4 0.00 0.00 0.00 68 1012.9
20260905161550 33 256 1.6 6.4 0.00 0.00 0.00 68 1013.2
20260905160052 32 306 1.6 6.4 0.00 0.00 0.00 69 1013.3
20260905154548 32 299 1.6 4.8 0.00 0.00 0.00 73 1013.6
20260905153106 31 251 3.2 8.0 0.00 0.00 0.00 72 1013.8
20260905151552 31 297 1.6 6.4 0.00 0.00 0.00 73 1013.9
20260905150049 31 293 1.6 4.8 0.00 0.00 0.00 74 1013.9
20260905144555 30 1 3.2 6.4 0.00 0.00 0.00 77 1014.0
20260905143053 30 281 3.2 6.4 0.00 0.00 0.00 78 1014.2
20260905141559 30 292 3.2 8.0 0.00 0.00 0.00 78 1014.2
20260905140100 29 292 3.2 6.4 0.00 0.00 0.00 79 1014.4
20260905134546 28 291 3.2 6.4 0.00 0.00 0.00 82 1014.3
20260905133055 28 323 3.2 6.4 0.00 0.00 0.00 83 1014.3
20260905131604 27 297 3.2 4.8 0.00 0.00 0.00 86 1014.2
20260905130054 27 270 3.2 8.0 0.00 0.00 0.00 87 1014.3
20260905124555 27 259 3.2 4.8 0.00 0.00 0.00 89 1014.2
20260905123056 26 266 1.6 6.4 0.00 0.00 0.00 91 1014.4
20260905121553 26 305 1.6 4.8 0.00 0.00 0.00 93 1014.3
20260905120053 25 196 1.6 6.4 0.00 0.00 0.00 94 1014.3